SCP
0 0 0 0 0 0 0 0 0 0 0 0 0 0 0 0 0 0 0 0 0 0
0 0 0 0 0 0 0 0 0 0 0 0 0 0 0 0 0 0 0 0 0 0
0 0 0 0 0 0 0 0 0 0 0 0 0 0 0 0 0 0 0 0 0 0
0 0 0 0 0 0 0 0 0 0 0 0 0 0 0 0 0 0 0 0 0 0
0 0 0 0 0 0 0 0 0 0 0 0 0 0 0 0 -0 0 0 0 0 0
0 0 0 0 0 0 0 0 0 0 -0 -0 0 0 0 -0 -0 -0 -0 0 0 0
0 0 0 0 0 0 0 0 0 0 0 -0 0 0 0 0 0 0 0 0 0 0
0 0 0 0 0 0 0 0 0 0 0 0 0 -0 -0 -0 0 0 -0 0 0 0
0 0 -0 0 0 0 0 0 0 0 0 -0 0 -0 -0 -0 0 -0 0 0 0 0
0 0 -0 0 0 0 0 0 0 0 -0 -0 -0 -0 -0 -0 -0 -0 0 0 0 0
0 0 0 0 0 0 0 0 0 0 -0 -0 -0 -0 -0 -0 -0 -0 -0 0 0 0
0 0 0 0 0 0 0 0 0 0 -0 0 -0 -0 -0 -0 -0 -0 -0 -0 -0 -0
0 0 0 0 0 0 0 0 0 0 -0 -0 -0 -0 -0 0 0 0 0 0 -0 -0
0 0 0 0 0 0 0 0 0 0 -0 0 -0 0 -0 -0 0 0 0 0 0 0
Wind_Speed_500mb
97 100 99 97 90 86 78 67 73 67 71 70 70 63 58 58 59 61 57 54 50 47
100 95 88 81 77 75 69 70 72 71 69 68 64 55 62 62 61 51 48 55 63 62
91 81 73 70 67 66 67 67 68 68 65 61 59 51 49 54 54 48 47 50 49 62
77 69 65 64 64 64 65 64 63 62 61 58 55 50 51 51 47 48 48 48 48 47
66 61 61 59 60 62 65 62 59 57 55 53 49 46 47 49 47 45 43 42 39 39
62 60 58 60 62 61 61 59 55 52 48 47 44 43 44 45 44 44 42 39 42 36
62 59 59 60 58 57 55 56 54 49 44 42 41 37 32 32 36 36 35 32 36 40
57 56 58 57 56 54 51 50 47 45 42 39 37 31 30 23 22 24 22 19 22 28
53 55 56 55 55 52 49 47 47 44 41 43 43 29 17 11 6 14 16 14 16 16
51 55 55 54 51 49 48 48 49 47 48 51 48 28 14 15 15 16 12 11 11 14
49 52 52 52 50 49 49 51 51 49 50 50 48 26 23 16 11 11 8 8 12 14
46 48 49 49 50 51 53 55 55 52 53 55 50 32 27 28 28 31 34 33 33 37
41 45 50 51 55 56 59 60 60 61 62 61 64 54 47 50 50 51 50 47 47 43
45 48 51 49 53 56 57 56 64 64 67 68 69 63 60 54 56 57 61 60 56 56
Wind_Direction_500mb
318 317 315 313 311 311 314 307 307 308 300 292 282 277 275 272 267 271 263 258 252 244
319 317 315 317 320 320 316 315 310 305 302 301 299 285 270 274 276 274 262 255 245 236
321 322 324 322 322 322 318 315 312 308 303 297 293 286 277 272 274 268 263 264 264 248
328 329 328 330 330 328 326 324 319 314 307 299 292 286 277 268 265 263 261 260 265 260
336 335 336 335 337 337 333 329 324 319 313 308 301 290 278 270 262 258 258 259 259 254
344 344 341 342 342 337 336 334 331 325 318 312 304 295 282 270 262 255 251 252 247 239
349 348 347 345 341 341 342 342 340 338 332 326 319 312 295 274 263 252 245 247 242 234
350 350 351 348 347 348 349 349 346 345 349 349 336 313 297 285 259 233 223 231 230 228
353 356 356 357 357 358 359 1 3 4 3 1 350 321 286 261 213 196 199 228 232 221
360 1 4 7 7 9 12 15 16 17 19 15 21 46 63 113 138 163 196 233 213 204
7 10 12 17 19 23 26 29 29 30 33 30 31 44 59 68 107 163 176 193 191 180
14 19 25 31 33 37 42 45 47 46 52 54 54 54 68 82 94 98 98 100 104 108
29 41 45 45 45 47 52 55 57 59 62 65 67 67 77 93 97 96 96 96 95 93
56 55 51 49 52 51 51 56 59 61 62 64 65 68 69 71 80 86 89 87 88 90
Wind_Speed_850mb
97 100 99 97 90 86 78 67 73 67 71 70 70 63 58 58 59 61 57 54 50 47
100 95 88 81 77 75 69 70 72 71 69 68 64 55 62 62 61 51 48 55 63 62
91 81 73 70 67 66 67 67 68 68 65 61 59 51 49 54 54 48 47 50 49 62
77 69 65 64 64 64 65 64 63 62 61 58 55 50 51 51 47 48 48 48 48 47
66 61 61 59 60 62 65 62 59 57 55 53 49 46 47 49 47 45 43 42 39 39
62 60 58 60 62 61 61 59 55 52 48 47 44 43 44 45 44 44 42 39 42 36
62 59 59 60 58 57 55 56 54 49 44 42 41 37 32 32 36 36 35 32 36 40
57 56 58 57 56 54 51 50 47 45 42 39 37 31 30 23 22 24 22 19 22 28
53 55 56 55 55 52 49 47 47 44 41 43 43 29 17 11 6 14 16 14 16 16
51 55 55 54 51 49 48 48 49 47 48 51 48 28 14 15 15 16 12 11 11 14
49 52 52 52 50 49 49 51 51 49 50 50 48 26 23 16 11 11 8 8 12 14
46 48 49 49 50 51 53 55 55 52 53 55 50 32 27 28 28 31 34 33 33 37
41 45 50 51 55 56 59 60 60 61 62 61 64 54 47 50 50 51 50 47 47 43
45 48 51 49 53 56 57 56 64 64 67 68 69 63 60 54 56 57 61 60 56 56
Wind_Direction_850mb
318 317 315 313 311 311 314 307 307 308 300 292 282 277 275 272 267 271 263 258 252 244
319 317 315 317 320 320 316 315 310 305 302 301 299 285 270 274 276 274 262 255 245 236
321 322 324 322 322 322 318 315 312 308 303 297 293 286 277 272 274 268 263 264 264 248
328 329 328 330 330 328 326 324 319 314 307 299 292 286 277 268 265 263 261 260 265 260
336 335 336 335 337 337 333 329 324 319 313 308 301 290 278 270 262 258 258 259 259 254
344 344 341 342 342 337 336 334 331 325 318 312 304 295 282 270 262 255 251 252 247 239
349 348 347 345 341 341 342 342 340 338 332 326 319 312 295 274 263 252 245 247 242 234
350 350 351 348 347 348 349 349 346 345 349 349 336 313 297 285 259 233 223 231 230 228
353 356 356 357 357 358 359 1 3 4 3 1 350 321 286 261 213 196 199 228 232 221
360 1 4 7 7 9 12 15 16 17 19 15 21 46 63 113 138 163 196 233 213 204
7 10 12 17 19 23 26 29 29 30 33 30 31 44 59 68 107 163 176 193 191 180
14 19 25 31 33 37 42 45 47 46 52 54 54 54 68 82 94 98 98 100 104 108
29 41 45 45 45 47 52 55 57 59 62 65 67 67 77 93 97 96 96 96 95 93
56 55 51 49 52 51 51 56 59 61 62 64 65 68 69 71 80 86 89 87 88 90